GPS BIII-8 (PRN 21)

Last updated on Sat Dec 13 2025 00:03:17 GMT+0000 (Coordinated Universal Time)

1 64202U 25116A 25346.11800625 -.00000097 00000+0 00000+0 0 9997 2 64202 55.1053 38.6656 0005560 307.8472 53.3313 2.00558325 4121
UTC large
Height (km)
Speed (km/s)
/
Latitude / Longitude
Inclination (degrees)
Orbital Period (minutes)
Azimuth
Elevation
Range (km)
Doppler Factor

Next 0 passes for location: London (51.5072 / 0.1276)

Sorry there are no passes over London.